Content
SEND FEEDBACK

Daily
Averages
Monthly
Summary
United States of America

FLOYD, NEW MEXICO


Home > North America > United States > New Mexico
Elevation: 4300 feet     Latitude: 34 13N     Longitude: 103 33W

WEATHER
 
SELECT A DAY
Number of Records: 164,959;   Date Range: 1/2/95 - 9/20/14
 
SHARE

PRINT THIS DATA

[ ← Previous Day ]
WEATHER ALMANAC - JANUARY 23, 2013
[ Next Day → ]
[ °C ]   °F
Weather ElementAverageHighLow
Temperature48.9 °F69.3 °F (2:58 pm)24.8 °F (5:58 am)
Dewpoint11.1 °F17.6 °F (8:58 am)5.2 °F (4:58 pm)
Humidity27 %63 % (5:58 am)9 % (2:58 pm)
Barometer30.13 in30.22 in (8:58 am)30.07 in (2:58 pm)
Wind Speed8.7 mph16.1 mph (7:58 pm)
Weather ElementAverage
Visibility10 mi
Wind DirectionW (267 °)

Weather ElementTotal
Precipitation---
Heating Degree Days18 (Base 65)
Averaged from 23 records on January 23, 2013
WEATHER CONDITIONS BREAKOUT
WIND DIRECTION BREAKOUT
WEATHER BY HOUR - JANUARY 23, 2013
[ °C ]   °F
Local TimeTemperatureDewpointHumidityBarometerVisibilityWind DirectionWind SpeedGust SpeedPrecipitationEventsConditions
1:58 AM34.2 °F13.6 °F43 %30.12 in10.0 miNW (320°)8.1 mphClear
2:58 AM36.0 °F11.7 °F37 %30.09 in10.0 miWest (270°)4.6 mphClear
3:58 AM29.1 °F12.4 °F50 %30.12 in10.0 miNNW (330°)3.5 mphClear
4:58 AM27.3 °F13.5 °F56 %30.14 in10.0 miWNW (300°)3.5 mphClear
5:58 AM24.8 °F13.6 °F63 %30.18 in10.0 miWNW (300°)4.6 mphClear
6:58 AM29.5 °F14.9 °F55 %30.18 in10.0 miWNW (300°)6.9 mphClear
7:58 AM32.9 °F15.1 °F48 %30.19 in10.0 miNW (320°)10.4 mphClear
8:58 AM44.2 °F17.6 °F34 %30.22 in10.0 miNNW (330°)11.5 mphClear
9:58 AM55.6 °F17.1 °F22 %30.19 in10.0 miVariable3.5 mphClear
10:58 AM61.0 °F15.3 °F17 %30.17 in10.0 miWest (270°)5.8 mphClear
11:58 AM65.5 °F11.8 °F12 %30.12 in10.0 miNW (310°)5.8 mphClear
12:58 PM67.6 °F13.6 °F12 %30.11 in10.0 miWSW (240°)8.1 mphClear
1:58 PM68.4 °F9.1 °F10 %30.09 in10.0 miWest (270°)9.2 mphClear
2:58 PM69.3 °F7.9 °F9 %30.07 in10.0 miWSW (240°)10.4 mphClear
3:58 PM68.7 °F5.9 °F9 %30.10 in10.0 miWSW (250°)11.5 mphClear
4:58 PM65.1 °F5.2 °F9 %30.11 in10.0 miWest (270°)5.8 mphClear
5:58 PM55.8 °F9.0 °F15 %30.16 in10.0 miWest (260°)10.4 mphClear
6:58 PM52.0 °F9.1 °F18 %30.16 in10.0 miWSW (250°)9.2 mphClear
7:58 PM52.3 °F8.8 °F17 %30.15 in10.0 miWest (260°)16.1 mphClear
8:58 PM47.7 °F9.1 °F21 %30.14 in10.0 miWSW (240°)11.5 mphClear
9:58 PM46.6 °F8.8 °F22 %30.10 in10.0 miWest (260°)9.2 mphClear
10:58 PM46.9 °F7.2 °F20 %30.09 in10.0 miWest (270°)16.1 mphClear
11:58 PM44.2 °F5.9 °F21 %30.09 in10.0 miWest (280°)13.8 mphClear
Hourly data recorded from KCVS, located miles away from Floyd, New Mexico







STORIES FROM OUR PARTNERS